BV1EV-2 Weather Reports


time (UTC)temp
C
wind
direction
speed
KPH
gust
KPH
rain 1hr
cm
rain 24hr
cm
rain mn
cm
humidity
%
barometer
mb
20260504081748 30 0.0 0.0 0.00 0.00 0.00 44 1015.3
20260504045747 27 0.0 0.0 0.00 0.00 0.00 51 1015.9
20260504043747 28 0.0 0.0 0.00 0.00 0.00 50 1016.0
20260504041747 27 0.0 0.0 0.00 0.00 0.00 49 1016.3
20260504035747 27 0.0 0.0 0.00 0.00 0.00 50 1016.3
20260504033747 27 0.0 0.0 0.00 0.00 0.00 51 1016.5
20260504031747 27 0.0 0.0 0.00 0.00 0.00 52 1016.9
20260504025747 26 0.0 0.0 0.00 0.00 0.00 53 1016.9
20260504023747 27 0.0 0.0 0.00 0.00 0.00 42 1017.0
20260504021747 28 0.0 0.0 0.00 0.00 0.00 38 1017.4
20260504015747 28 0.0 0.0 0.00 0.00 0.00 38 1017.7
20260504013747 27 0.0 0.0 0.00 0.00 0.00 46 1017.9
20260504011747 29 0.0 0.0 0.00 0.00 0.00 39 1017.8
20260504005747 27 0.0 0.0 0.00 0.00 0.00 50 1017.5
20260504003746 29 0.0 0.0 0.00 0.00 0.00 38 1017.2
20260504001747 30 0.0 0.0 0.00 0.00 0.00 42 1017.4
20260503235747 28 0.0 0.0 0.00 0.00 0.00 60 1017.4
20260503233748 28 0.0 0.0 0.00 0.00 0.00 60 1017.6
20260503231748 28 0.0 0.0 0.00 0.00 0.00 59 1017.6
20260503225748 28 0.0 0.0 0.00 0.00 0.00 59 1017.3
20260503223750 28 0.0 0.0 0.00 0.00 0.00 59 1016.8
20260503221748 28 0.0 0.0 0.00 0.00 0.00 59 1016.3
20260503215748 28 0.0 0.0 0.00 0.00 0.00 58 1015.9
20260503213747 28 0.0 0.0 0.00 0.00 0.00 58 1015.5
20260503211748 28 0.0 0.0 0.00 0.00 0.00 57 1015.1
20260503205748 28 0.0 0.0 0.00 0.00 0.00 56 1014.6
20260503203747 28 0.0 0.0 0.00 0.00 0.00 56 1014.4
20260503201747 28 0.0 0.0 0.00 0.00 0.00 56 1014.3
20260503195747 27 0.0 0.0 0.00 0.00 0.00 55 1014.1
20260503193747 27 0.0 0.0 0.00 0.00 0.00 54 1013.8
20260503191748 27 0.0 0.0 0.00 0.00 0.00 53 1013.7
20260503185748 27 0.0 0.0 0.00 0.00 0.00 52 1013.6
20260503183748 27 0.0 0.0 0.00 0.00 0.00 49 1013.4
20260503181747 27 0.0 0.0 0.00 0.00 0.00 44 1013.4
20260503175747 28 0.0 0.0 0.00 0.00 0.00 40 1013.3
20260503173747 28 0.0 0.0 0.00 0.00 0.00 40 1013.4
20260503171747 28 0.0 0.0 0.00 0.00 0.00 44 1013.1